• In Uzbekistan
  • List of Countries
  • For 7 days
  • Water Temperature
  • Weather Map
  • Weather Widgets
  • user-avatar
    Login

    Hourly Weather Makadi Bey

    Today, 18 February, Tuesday

    Time Temperature Precipitation Wind Pressure Humidity
    00:00 +8°C° 0 mm 0 mps 705 mmHg 79%
    01:00 +8°C° 0 mm 0 mps 704 mmHg 80%
    02:00 +7°C° 0 mm 0 mps 704 mmHg 80%
    03:00 +7°C° 0 mm 0 mps 704 mmHg 80%
    04:00 +6°C° 0 mm 0 mps 704 mmHg 80%
    05:00 +6°C° 0 mm 0 mps 704 mmHg 81%
    06:00 +8°C° 0 mm 0 mps 705 mmHg 71%
    07:00 +11°C° 0 mm 1 mps 706 mmHg 62%
    08:00 +14°C° 0 mm 1 mps 706 mmHg 53%
    09:00 +15°C° 0 mm 2 mps 707 mmHg 47%
    10:00 +17°C° 0 mm 3 mps 707 mmHg 41%
    11:00 +18°C° 0 mm 3 mps 707 mmHg 35%
    12:00 +19°C° 0 mm 4 mps 707 mmHg 32%
    13:00 +20°C° 0 mm 4 mps 706 mmHg 29%
    14:00 +20°C° 0 mm 5 mps 706 mmHg 27%
    15:00 +20°C° 0 mm 5 mps 706 mmHg 27%
    16:00 +19°C° 0 mm 5 mps 706 mmHg 28%
    17:00 +19°C° 0 mm 6 mps 706 mmHg 29%
    18:00 +16°C° 0 mm 5 mps 706 mmHg 35%
    19:00 +14°C° 0 mm 5 mps 706 mmHg 42%
    20:00 +12°C° 0 mm 5 mps 706 mmHg 49%
    21:00 +10°C° 0 mm 5 mps 706 mmHg 52%
    22:00 +11°C° 0 mm 4 mps 706 mmHg 55%
    23:00 +10°C° 0 mm 3 mps 706 mmHg 58%

    Tomorrow, 19 February, Wednesday

    Time Temperature Precipitation Wind Pressure Humidity
    00:00 +10°C° 0 mm 3 mps 706 mmHg 61%
    01:00 +9°C° 0 mm 3 mps 706 mmHg 63%
    02:00 +9°C° 0 mm 3 mps 706 mmHg 65%
    03:00 +8°C° 0 mm 3 mps 706 mmHg 68%
    04:00 +8°C° 0 mm 3 mps 706 mmHg 71%
    05:00 +8°C° 0 mm 3 mps 705 mmHg 74%
    06:00 +8°C° 0 mm 4 mps 706 mmHg 67%
    07:00 +9°C° 0 mm 5 mps 706 mmHg 61%
    08:00 +10°C° 0 mm 6 mps 707 mmHg 54%
    09:00 +11°C° 0 mm 7 mps 707 mmHg 48%
    10:00 +13°C° 0 mm 8 mps 708 mmHg 42%
    11:00 +15°C° 0 mm 9 mps 708 mmHg 36%
    12:00 +16°C° 0 mm 9 mps 707 mmHg 35%
    13:00 +16°C° 0 mm 9 mps 707 mmHg 33%
    14:00 +17°C° 0 mm 9 mps 707 mmHg 31%
    15:00 +17°C° 0 mm 9 mps 707 mmHg 32%
    16:00 +16°C° 0 mm 9 mps 707 mmHg 33%
    17:00 +16°C° 0 mm 9 mps 707 mmHg 34%
    18:00 +14°C° 0 mm 7 mps 707 mmHg 39%
    19:00 +13°C° 0 mm 6 mps 707 mmHg 44%
    20:00 +11°C° 0 mm 4 mps 707 mmHg 49%
    21:00 +10°C° 0 mm 4 mps 708 mmHg 53%
    22:00 +9°C° 0 mm 3 mps 708 mmHg 56%
    23:00 +9°C° 0 mm 3 mps 708 mmHg 60%

    Day after tomorrow, 20 February, Thursday

    Time Temperature Precipitation Wind Pressure Humidity
    00:00 +8°C° 0 mm 3 mps 708 mmHg 64%
    01:00 +8°C° 0 mm 2 mps 708 mmHg 67%
    02:00 +7°C° 0 mm 2 mps 707 mmHg 71%
    03:00 +6°C° 0 mm 2 mps 707 mmHg 75%
    04:00 +7°C° 0 mm 1 mps 707 mmHg 78%
    05:00 +6°C° 0 mm 1 mps 707 mmHg 82%
    06:00 +8°C° 0 mm 1 mps 708 mmHg 74%
    07:00 +10°C° 0 mm 1 mps 709 mmHg 67%
    08:00 +12°C° 0 mm 1 mps 709 mmHg 59%
    09:00 +14°C° 0 mm 1 mps 710 mmHg 49%
    10:00 +15°C° 0 mm 1 mps 710 mmHg 40%
    11:00 +17°C° 0 mm 2 mps 710 mmHg 30%
    12:00 +18°C° 0 mm 2 mps 710 mmHg 28%
    13:00 +19°C° 0 mm 2 mps 709 mmHg 25%
    14:00 +20°C° 0 mm 3 mps 709 mmHg 23%
    15:00 +19°C° 0 mm 3 mps 708 mmHg 30%
    16:00 +19°C° 0 mm 3 mps 708 mmHg 36%
    17:00 +18°C° 0 mm 3 mps 708 mmHg 43%
    18:00 +15°C° 0 mm 2 mps 708 mmHg 55%
    19:00 +13°C° 0 mm 2 mps 708 mmHg 68%
    20:00 +11°C° 0 mm 1 mps 707 mmHg 80%
    21:00 +10°C° 0 mm 1 mps 707 mmHg 81%
    22:00 +9°C° 0 mm 1 mps 707 mmHg 83%
    23:00 +8°C° 0 mm 0 mps 707 mmHg 84%

    21 February, Friday

    Time Temperature Precipitation Wind Pressure Humidity
    00:00 +7°C° 0 mm 0 mps 707 mmHg 83%
    01:00 +7°C° 0 mm 0 mps 707 mmHg 82%
    02:00 +8°C° 0 mm 1 mps 706 mmHg 81%
    03:00 +8°C° 0 mm 1 mps 706 mmHg 81%
    04:00 +7°C° 0 mm 1 mps 706 mmHg 81%
    05:00 +6°C° 0 mm 0 mps 706 mmHg 81%
    06:00 +9°C° 0 mm 1 mps 707 mmHg 70%
    07:00 +12°C° 0 mm 1 mps 707 mmHg 59%
    08:00 +14°C° 0 mm 1 mps 708 mmHg 49%
    15:00 +22°C° 0 mm 5 mps 707 mmHg 17%
    16:00 +21°C° 0 mm 5 mps 707 mmHg 18%
    17:00 +21°C° 0 mm 5 mps 707 mmHg 18%
    18:00 +17°C° 0 mm 5 mps 707 mmHg 23%
    19:00 +15°C° 0 mm 5 mps 707 mmHg 27%
    20:00 +13°C° 0 mm 4 mps 707 mmHg 31%
    21:00 +12°C° 0 mm 4 mps 707 mmHg 35%
    22:00 +12°C° 0 mm 4 mps 707 mmHg 38%
    23:00 +11°C° 0 mm 3 mps 707 mmHg 41%

    22 February, Saturday

    Time Temperature Precipitation Wind Pressure Humidity
    00:00 +10°C° 0 mm 3 mps 707 mmHg 44%
    01:00 +10°C° 0 mm 3 mps 706 mmHg 47%
    02:00 +9°C° 0 mm 3 mps 706 mmHg 50%
    03:00 +9°C° 0 mm 3 mps 706 mmHg 56%
    04:00 +8°C° 0 mm 3 mps 706 mmHg 63%
    05:00 +7°C° 0 mm 3 mps 706 mmHg 69%
    06:00 +9°C° 0 mm 3 mps 707 mmHg 62%
    07:00 +10°C° 0 mm 3 mps 708 mmHg 55%
    08:00 +12°C° 0 mm 4 mps 708 mmHg 48%
    09:00 +13°C° 0 mm 3 mps 708 mmHg 41%
    10:00 +16°C° 0 mm 3 mps 709 mmHg 34%
    11:00 +18°C° 0 mm 3 mps 709 mmHg 27%
    12:00 +19°C° 0 mm 4 mps 709 mmHg 24%
    13:00 +20°C° 0 mm 5 mps 708 mmHg 21%
    14:00 +21°C° 0 mm 6 mps 708 mmHg 19%
    15:00 +20°C° 0 mm 5 mps 708 mmHg 21%
    16:00 +19°C° 0 mm 5 mps 708 mmHg 23%
    17:00 +17°C° 0 mm 5 mps 708 mmHg 26%
    18:00 +15°C° 0 mm 4 mps 708 mmHg 33%
    19:00 +13°C° 0 mm 4 mps 708 mmHg 40%
    20:00 +10°C° 0 mm 3 mps 708 mmHg 47%
    21:00 +10°C° 0 mm 3 mps 708 mmHg 50%
    22:00 +9°C° 0 mm 3 mps 708 mmHg 53%
    23:00 +8°C° 0 mm 2 mps 707 mmHg 55%

    23 February, Sunday

    Time Temperature Precipitation Wind Pressure Humidity
    00:00 +8°C° 0 mm 2 mps 707 mmHg 57%
    01:00 +8°C° 0 mm 2 mps 707 mmHg 59%
    02:00 +7°C° 0 mm 2 mps 707 mmHg 61%
    03:00 +7°C° 0 mm 2 mps 707 mmHg 64%
    04:00 +6°C° 0 mm 2 mps 706 mmHg 68%
    05:00 +7°C° 0 mm 1 mps 706 mmHg 71%
    06:00 +7°C° 0 mm 2 mps 707 mmHg 65%
    07:00 +9°C° 0 mm 2 mps 707 mmHg 58%
    08:00 +10°C° 0 mm 2 mps 708 mmHg 52%
    09:00 +12°C° 0 mm 3 mps 708 mmHg 44%
    10:00 +14°C° 0 mm 4 mps 708 mmHg 37%
    11:00 +16°C° 0 mm 5 mps 708 mmHg 30%
    12:00 +17°C° 0 mm 6 mps 708 mmHg 28%
    13:00 +17°C° 0 mm 6 mps 707 mmHg 26%
    14:00 +18°C° 0 mm 7 mps 707 mmHg 23%
    15:00 +17°C° 0 mm 6 mps 707 mmHg 25%
    16:00 +17°C° 0 mm 6 mps 706 mmHg 27%
    17:00 +16°C° 0 mm 6 mps 706 mmHg 29%
    18:00 +14°C° 0 mm 6 mps 706 mmHg 36%
    19:00 +12°C° 0 mm 5 mps 706 mmHg 42%
    20:00 +9°C° 0 mm 5 mps 706 mmHg 49%
    21:00 +8°C° 0 mm 4 mps 706 mmHg 52%
    22:00 +8°C° 0 mm 4 mps 706 mmHg 55%
    23:00 +8°C° 0 mm 3 mps 706 mmHg 57%
    Show more